Aeroporto :







RITROVATECI SU...

 
LOGIN :

Iscrizione | Disclaimer

   EN    FR    IT 

 









Sommario :    VFR   VFR Marginale   IFR   IFR Intensivo   IFR Molto Intensivo
Visibilità : 
Base nubi : 
>= 8 km
>= 3000ft
5 / 8 km
1000 / 3000 ft
1500m / 5 km
500 / 1000 ft
800 / 1500m
200 / 500 ft
< 800m
< 200 ft
Simboli :   Temporali  Nebbia  Neve Forte  Precipitazioni Forti  Vento > 20 kt






- Altitudine del aeroporto : 240 ft
- Codice IATA : LRM


MDLR - Casa de Campo Int.

METARs OBSOLETI :
  • 230300Z 00000KT 9999 FEW014CB SCT016 24/23 Q1014 CB/SW

TAF TAF MDLR
Valido dal 23 a 00 ore il 24 a 00 ore UTC


222200Z 2300/2400 00000KT 9999 FEW016CB SCT018
PROB40 2300/2306 5000 TSRA FEW016CB BKN018 BKN070
BECMG 2314/2316 07008KT
FIR MDCS / America del Nord



MetMap, La meteo Aeronautica in un colpo d'occhio ! - Copyright ORBIFLY Dicembre 2007 - Disclaimer

ORBIFLY MET'MAP TEAM :

Programmazione e sviluppo : Alexandra Zaïnal
Concezione : Baudouin d'Aumeries
Aiuto per la programmazione : Marc-Olivier Méhu
Supporto tecnico e logistico : Manuel Goepfert
Aiuto per la traduzione : Arnaldo La Scala

Contatto : metmap@orbifly.com




FONTI E CREDITI :

   NOAA